Weather History for Westerly, RI

Change the Weather History Date:

Thursday, August 8, 2013

  Actual Average (KGON) Record (KGON)
Temperature  
Mean Temperature 72 °F -  
Max Temperature 77 °F 81 °F 92 °F (1980)
Min Temperature 68 °F 63 °F 50 °F (1957)
Cooling Degree Days 6    
Growing Degree Days 22 (Base 50)    
Moisture  
Dew Point 68 °F    
Average Humidity 88    
Maximum Humidity 100    
Minimum Humidity 78    
Precipitation  
Precipitation 0.14 in - - ()
Sea Level Pressure  
Sea Level Pressure 30.09 in    
Wind  
Wind Speed 8 mph (South)    
Max Wind Speed 14 mph    
Max Gust Speed 21 mph    
Visibility 9 miles    
Events Rain    
Averages and records for this station are not official NWS values.
T = Trace of Precipitation, MM = Missing Value Source: NWS Daily Summary

Daily Weather History Graph

Daily Weather History Graph

Search for Another Location

Airport:

Trip Planner

Search our weather history database for the weather conditions in past years. The results will help you decide how hot, cold, wet, or windy it might be!

Date:

Astronomy

Aug. 08, 2013 Rise Set
Actual Time 5:49 AM EDT 7:55 PM EDT
Civil Twilight 5:19 AM EDT 8:25 PM EDT
Nautical Twilight 4:41 AM EDT 9:02 PM EDT
Astronomical Twilight 4:00 AM EDT 9:43 PM EDT
Moon 7:35 AM EDT (8/8) 8:30 PM EDT (8/8)
Length of Visible Light 15h 06m
Length of Day
14h 06m
Waxing Crescent, 3% of the Moon is Illuminated
Aug 8
Waxing Crescent
Aug 14
First Quarter
Aug 20
Full
Aug 28
Last Quarter
Sep 5
New

Hourly Weather History & Observations

Time (EDT) Temp. Dew Point Humidity Pressure Visibility Wind Dir Wind Speed Gust Speed Precip Events Conditions
12:50 AM 69.8 °F 64.4 °F 83% 30.13 in 10.0 mi SE 6.9 mph - N/A   Overcast
12:53 AM 69.1 °F 64.9 °F 87% 30.12 in 10.0 mi SE 8.1 mph - N/A   Overcast
1:02 AM 69.8 °F 64.4 °F 83% 30.13 in 10.0 mi SE 6.9 mph - N/A   Overcast
1:53 AM 70.0 °F 64.9 °F 84% 30.12 in 10.0 mi SSE 6.9 mph - N/A   Overcast
2:53 AM 69.1 °F 64.9 °F 87% 30.12 in 10.0 mi SE 4.6 mph - 0.00 in   Overcast
3:53 AM 69.1 °F 64.9 °F 87% 30.10 in 10.0 mi SSE 9.2 mph - 0.00 in   Overcast
4:53 AM 69.1 °F 64.9 °F 87% 30.09 in 10.0 mi South 8.1 mph - 0.00 in Rain Light Rain
5:32 AM 68.0 °F 66.2 °F 94% 30.09 in 2.5 mi South 8.1 mph - 0.09 in Rain Heavy Rain
5:49 AM 68.0 °F 66.2 °F 94% 30.10 in 4.0 mi South 9.2 mph - 0.13 in Rain Light Rain
5:53 AM 68.0 °F 66.9 °F 96% 30.10 in 5.0 mi South 8.1 mph - 0.13 in Rain Light Rain
6:53 AM 69.1 °F 66.9 °F 93% 30.10 in 4.0 mi South 9.2 mph - 0.00 in Rain Light Rain
7:34 AM 69.8 °F 68.0 °F 94% 30.10 in 10.0 mi South 8.1 mph - 0.01 in   Overcast
7:53 AM 70.0 °F 69.1 °F 97% 30.10 in 8.0 mi South 6.9 mph - 0.01 in   Overcast
8:53 AM 71.1 °F 69.1 °F 93% 30.10 in 10.0 mi South 8.1 mph - 0.00 in Rain Light Rain
9:35 AM 71.6 °F 68.0 °F 88% 30.11 in 10.0 mi SSW 9.2 mph - 0.00 in   Overcast
9:53 AM 71.1 °F 68.0 °F 90% 30.11 in 10.0 mi SSW 10.4 mph - 0.00 in   Overcast
10:53 AM 72.0 °F 68.0 °F 87% 30.10 in 10.0 mi South 11.5 mph - N/A   Overcast
11:38 AM 71.6 °F 68.0 °F 88% 30.10 in 9.0 mi South 12.7 mph - N/A   Overcast
11:53 AM 72.0 °F 68.0 °F 87% 30.10 in 9.0 mi SSW 10.4 mph - N/A   Overcast
12:53 PM 75.0 °F 68.0 °F 79% 30.09 in 10.0 mi SSW 12.7 mph 19.6 mph N/A   Overcast
1:53 PM 75.9 °F 69.1 °F 79% 30.09 in 10.0 mi South 10.4 mph 16.1 mph N/A   Overcast
2:04 PM 75.2 °F 68.0 °F 78% 30.09 in 10.0 mi South 13.8 mph - N/A   Overcast
2:53 PM 73.9 °F 69.1 °F 85% 30.10 in 10.0 mi SSW 11.5 mph - N/A   Overcast
3:53 PM 75.9 °F 69.1 °F 79% 30.08 in 10.0 mi South 9.2 mph - N/A   Overcast
4:53 PM 75.0 °F 69.1 °F 82% 30.07 in 10.0 mi SSW 9.2 mph 16.1 mph N/A   Overcast
5:23 PM 75.2 °F 69.8 °F 83% 30.06 in 10.0 mi SSW 10.4 mph - N/A   Overcast
5:53 PM 75.0 °F 70.0 °F 84% 30.06 in 10.0 mi SSW 11.5 mph 20.7 mph N/A   Scattered Clouds
6:11 PM 73.4 °F 69.8 °F 88% 30.06 in 10.0 mi SSW 11.5 mph - N/A   Mostly Cloudy
6:53 PM 75.0 °F 70.0 °F 84% 30.06 in 10.0 mi SW 8.1 mph - N/A   Mostly Cloudy
7:01 PM 75.2 °F 69.8 °F 83% 30.06 in 10.0 mi SW 9.2 mph - N/A   Mostly Cloudy
7:21 PM 75.2 °F 69.8 °F 83% 30.06 in 10.0 mi SSW 6.9 mph - N/A   Mostly Cloudy
7:53 PM 73.0 °F 70.0 °F 90% 30.06 in 10.0 mi SSW 6.9 mph - N/A   Overcast
8:17 PM 73.4 °F 69.8 °F 88% 30.07 in 10.0 mi SW 6.9 mph - N/A   Overcast
8:24 PM 73.4 °F 69.8 °F 88% 30.07 in 10.0 mi SSW 8.1 mph - N/A   Overcast
8:53 PM 73.0 °F 70.0 °F 90% 30.09 in 10.0 mi SW 8.1 mph - N/A   Overcast
9:53 PM 72.0 °F 70.0 °F 93% 30.08 in 10.0 mi South 8.1 mph - N/A   Clear
10:53 PM 72.0 °F 70.0 °F 93% 30.08 in 10.0 mi South 8.1 mph - N/A   Clear
11:14 PM 71.6 °F 69.8 °F 94% 30.08 in 10.0 mi South 3.5 mph - N/A   Scattered Clouds
11:22 PM 71.6 °F 69.8 °F 94% 30.08 in 9.0 mi South 3.5 mph - N/A   Mostly Cloudy
11:41 PM 71.6 °F 69.8 °F 94% 30.07 in 9.0 mi South 5.8 mph - N/A   Scattered Clouds
11:53 PM 70.0 °F 70.0 °F 100% 30.07 in 8.0 mi SE 4.6 mph - N/A   Scattered Clouds
11:59 PM 69.8 °F 69.8 °F 100% 30.07 in 8.0 mi SE 4.6 mph - N/A   Mostly Cloudy